Le Mars, IA

10:22 PM CDT on September 18, 2019 (GMT -0500)
Le Mars Municipal

Weather History for KLRJ - July, 2019

Change the Weather History Date:

Friday, July 12, 2019

  Actual Average Record
Temperature  
Mean Temperature 76 °F -  
Max Temperature 89 °F 88 °F 102 °F (1980)
Min Temperature 64 °F 64 °F 49 °F (1975)
Cooling Degree Days 12    
Growing Degree Days 26 (Base 50)    
Moisture  
Dew Point 68 °F    
Average Humidity 77    
Maximum Humidity 100    
Minimum Humidity 52    
Precipitation  
Precipitation 0.01 in - - ()
Sea Level Pressure  
Sea Level Pressure 29.95 in    
Wind  
Wind Speed 7 mph (South)    
Max Wind Speed 16 mph    
Max Gust Speed 23 mph    
Visibility 10 miles    
Events      
Averages and records for this station are not official NWS values.
T = Trace of Precipitation, MM = Missing Value Source: NWS Daily Summary

Daily Weather History Graph

Daily Weather History Graph

Search for Another Location

Airport or City:

Astronomy

Jul. 12, 2019 Rise Set
Actual Time 5:57 AM CDT 9:03 PM CDT
Civil Twilight 5:23 AM CDT 9:37 PM CDT
Nautical Twilight 4:39 AM CDT 10:20 PM CDT
Astronomical Twilight 3:46 AM CDT 11:12 PM CDT
Moon 5:21 PM CDT (7/12) 2:44 AM CDT (7/12)
Length of Visible Light 16h 13m
Length of Day
15h 05m
Waxing Gibbous, 83% of the Moon is Illuminated
Jul 12
Waxing Gibbous
Jul 16
Full
Jul 24
Last Quarter
Jul 31
New
Aug 7
First Quarter

Hourly Weather History & Observations

Time (CDT) Temp. Heat Index Dew Point Humidity Pressure Visibility Wind Dir Wind Speed Gust Speed Precip Events Conditions
12:15 AM 66.2 °F - 64.4 °F 94% 29.98 in 10.0 mi South 4.6 mph - N/A   Clear
12:35 AM 66.2 °F - 64.4 °F 94% 29.98 in 10.0 mi SSW 4.6 mph - N/A   Clear
12:55 AM 66.2 °F - 64.4 °F 94% 29.98 in 10.0 mi South 4.6 mph - N/A   Clear
1:15 AM 66.2 °F - 62.6 °F 88% 29.98 in 10.0 mi South 4.6 mph - N/A   Clear
1:35 AM 66.2 °F - 62.6 °F 88% 29.98 in 10.0 mi South 4.6 mph - N/A   Clear
1:55 AM 66.2 °F - 62.6 °F 88% 29.98 in 10.0 mi South 4.6 mph - N/A   Clear
2:15 AM 64.4 °F - 62.6 °F 94% 29.98 in 10.0 mi South 5.8 mph - N/A   Clear
2:35 AM 64.4 °F - 62.6 °F 94% 29.98 in 10.0 mi South 5.8 mph - N/A   Clear
2:55 AM 64.4 °F - 62.6 °F 94% 29.98 in 10.0 mi South 5.8 mph - N/A   Clear
3:15 AM 64.4 °F - 62.6 °F 94% 29.97 in 10.0 mi South 4.6 mph - N/A   Clear
3:35 AM 64.4 °F - 62.6 °F 94% 29.97 in 10.0 mi South 5.8 mph - N/A   Clear
3:55 AM 64.4 °F - 62.6 °F 94% 29.96 in 10.0 mi South 9.2 mph - N/A   Clear
4:15 AM 64.4 °F - 62.6 °F 94% 29.97 in 10.0 mi South 8.1 mph - N/A   Clear
4:35 AM 64.4 °F - 64.4 °F 100% 29.97 in 10.0 mi South 8.1 mph - N/A   Clear
4:55 AM 64.4 °F - 64.4 °F 100% 29.97 in 10.0 mi South 6.9 mph - N/A   Clear
5:15 AM 64.4 °F - 62.6 °F 94% 29.97 in 10.0 mi South 6.9 mph - N/A   Clear
5:35 AM 64.4 °F - 62.6 °F 94% 29.97 in 10.0 mi South 8.1 mph - N/A   Clear
5:55 AM 64.4 °F - 62.6 °F 94% 29.97 in 10.0 mi South 8.1 mph - N/A   Clear
6:15 AM 64.4 °F - 62.6 °F 94% 29.97 in 10.0 mi South 8.1 mph - N/A   Clear
6:35 AM 66.2 °F - 62.6 °F 88% 29.97 in 10.0 mi South 6.9 mph - N/A   Clear
6:55 AM 66.2 °F - 64.4 °F 94% 29.97 in 10.0 mi South 5.8 mph - N/A   Clear
7:15 AM 68.0 °F - 64.4 °F 88% 29.96 in 10.0 mi South 8.1 mph - N/A   Clear
7:35 AM 68.0 °F - 64.4 °F 88% 29.96 in 10.0 mi South 10.4 mph - N/A   Clear
7:55 AM 69.8 °F - 64.4 °F 83% 29.96 in 10.0 mi South 6.9 mph - N/A   Clear
8:15 AM 71.6 °F - 66.2 °F 83% 29.97 in 10.0 mi SSW 8.1 mph - N/A   Clear
8:35 AM 73.4 °F - 66.2 °F 78% 29.97 in 10.0 mi South 8.1 mph - N/A   Clear
8:55 AM 73.4 °F - 66.2 °F 78% 29.97 in 10.0 mi South 11.5 mph - N/A   Clear
9:15 AM 75.2 °F - 64.4 °F 69% 29.96 in 10.0 mi South 12.7 mph - N/A   Clear
9:35 AM 77.0 °F - 64.4 °F 65% 29.95 in 10.0 mi South 10.4 mph 17.3 mph N/A   Clear
9:55 AM 78.8 °F - 64.4 °F 61% 29.95 in 10.0 mi South 13.8 mph - N/A   Clear
10:15 AM 78.8 °F - 64.4 °F 61% 29.95 in 10.0 mi South 13.8 mph - N/A   Clear
10:35 AM 80.6 °F 82.7 °F 66.2 °F 61% 29.95 in 10.0 mi SSW 11.5 mph 18.4 mph N/A   Clear
10:55 AM 80.6 °F 82.7 °F 66.2 °F 61% 29.96 in 10.0 mi SSW 12.7 mph 18.4 mph N/A   Clear
11:15 AM 82.4 °F 84.6 °F 66.2 °F 58% 29.97 in 10.0 mi South 11.5 mph - N/A   Clear
11:35 AM 82.4 °F 85.4 °F 68.0 °F 62% 29.97 in 10.0 mi SSW 11.5 mph - N/A   Clear
11:55 AM 84.2 °F 86.6 °F 66.2 °F 55% 29.96 in 10.0 mi South 13.8 mph - N/A   Clear
12:15 PM 84.2 °F 87.3 °F 68.0 °F 58% 29.97 in 10.0 mi SSW 8.1 mph 15.0 mph N/A   Clear
12:35 PM 84.2 °F 87.3 °F 68.0 °F 58% 29.97 in 10.0 mi SW 11.5 mph - N/A   Clear
12:55 PM 84.2 °F 88.4 °F 69.8 °F 62% 29.97 in 10.0 mi WSW 5.8 mph 12.7 mph N/A   Clear
1:15 PM 86.0 °F 89.4 °F 68.0 °F 55% 29.96 in 10.0 mi West 5.8 mph - N/A   Clear
1:35 PM 86.0 °F 89.4 °F 68.0 °F 55% 29.94 in 10.0 mi West 4.6 mph - N/A   Clear
1:55 PM 86.0 °F 89.4 °F 68.0 °F 55% 29.92 in 10.0 mi Variable 3.5 mph - N/A   Clear
2:15 PM 87.8 °F 92.6 °F 69.8 °F 55% 29.90 in 10.0 mi South 12.7 mph - N/A   Clear
2:35 PM 89.6 °F 94.7 °F 69.8 °F 52% 29.89 in 10.0 mi South 16.1 mph - N/A   Partly Cloudy
2:55 PM 87.8 °F 92.6 °F 69.8 °F 55% 29.90 in 10.0 mi South 16.1 mph - N/A   Partly Cloudy
3:15 PM 89.6 °F 94.7 °F 69.8 °F 52% 29.90 in 10.0 mi SSE 11.5 mph - N/A   Clear
3:35 PM 87.8 °F 91.4 °F 68.0 °F 52% 29.90 in 10.0 mi South 13.8 mph - N/A   Partly Cloudy
3:55 PM 84.2 °F 88.4 °F 69.8 °F 62% 29.90 in 10.0 mi South 13.8 mph - N/A   Light Drizzle
4:15 PM 86.0 °F 90.4 °F 69.8 °F 58% 29.93 in 10.0 mi SW 8.1 mph 16.1 mph N/A   Overcast
4:35 PM 86.0 °F 90.4 °F 69.8 °F 58% 29.88 in 10.0 mi SSW 16.1 mph 23.0 mph N/A   Mostly Cloudy
4:55 PM 87.8 °F 93.8 °F 71.6 °F 58% 29.88 in 10.0 mi SSW 13.8 mph 19.6 mph N/A   Clear
5:15 PM 89.6 °F 96.2 °F 71.6 °F 55% 29.90 in 10.0 mi SSW 11.5 mph 17.3 mph N/A   Partly Cloudy
5:35 PM 87.8 °F 92.6 °F 69.8 °F 55% 29.90 in 10.0 mi South 10.4 mph 17.3 mph N/A   Mostly Cloudy
5:55 PM 86.0 °F 91.8 °F 71.6 °F 62% 29.92 in 10.0 mi SSW 8.1 mph 16.1 mph N/A   Mostly Cloudy
6:15 PM 80.6 °F 85.4 °F 73.4 °F 79% 29.93 in 9.0 mi SW 11.5 mph 18.4 mph N/A   Light Drizzle
6:35 PM 78.8 °F - 73.4 °F 83% 29.92 in 10.0 mi SE 5.8 mph 12.7 mph N/A   Clear
6:55 PM 82.4 °F 88.2 °F 73.4 °F 74% 29.92 in 10.0 mi SE 6.9 mph - 0.01 in   Clear
7:15 PM 84.2 °F 90.9 °F 73.4 °F 70% 29.92 in 10.0 mi SW 3.5 mph - N/A   Clear
7:35 PM 84.2 °F 90.9 °F 73.4 °F 70% 29.92 in 10.0 mi SSW 4.6 mph - N/A   Clear
7:55 PM 86.0 °F 95.1 °F 75.2 °F 70% 29.92 in 10.0 mi South 3.5 mph - N/A   Clear
8:15 PM 84.2 °F 92.3 °F 75.2 °F 74% 29.92 in 10.0 mi Calm Calm - N/A   Clear
8:35 PM 84.2 °F 92.3 °F 75.2 °F 74% 29.92 in 10.0 mi Calm Calm - N/A   Clear
8:55 PM 82.4 °F 89.5 °F 75.2 °F 79% 29.92 in 10.0 mi Calm Calm - N/A   Clear
9:15 PM 80.6 °F 85.4 °F 73.4 °F 79% 29.92 in 10.0 mi South 4.6 mph - N/A   Clear
9:35 PM 78.8 °F - 73.4 °F 83% 29.93 in 10.0 mi Calm Calm - N/A   Clear
9:55 PM 77.0 °F - 73.4 °F 89% 29.93 in 10.0 mi Calm Calm - N/A   Clear
10:15 PM 77.0 °F - 73.4 °F 89% 29.93 in 10.0 mi Calm Calm - N/A   Clear
10:35 PM 75.2 °F - 75.2 °F 100% 29.94 in 10.0 mi Calm Calm - N/A   Clear
10:55 PM 77.0 °F - 73.4 °F 89% 29.93 in 10.0 mi Calm Calm - N/A   Clear
11:15 PM 75.2 °F - 73.4 °F 94% 29.94 in 10.0 mi Calm Calm - N/A   Clear
11:35 PM 75.2 °F - 73.4 °F 94% 29.94 in 10.0 mi Calm Calm - N/A   Clear
11:55 PM 75.2 °F - 71.6 °F 89% 29.93 in 10.0 mi ESE 4.6 mph - N/A   Clear